Theta_e
326 328 328 330 333 336 339 339 337 339 340 340 340 340 340 340 341 339 341 342 340 339 342 341 339 338 338 338 336 337 336 337 337 338 340 340 340 341 340 339 339 339 339 338 336 339 334 333 335 334 336 336 335 333 330 334 333 332 333 332 331 329 330 332 332 333 329 327 327 326 326 328 330 329 327 325 327 328 322 319 318 317 315 315 317
326 328 332 337 338 337 337 338 338 337 339 339 339 340 340 341 341 341 340 342 341 340 341 341 340 338 336 336 336 336 335 335 335 337 339 340 340 340 340 339 339 339 339 338 337 335 334 333 335 335 335 335 335 334 332 338 334 333 333 330 330 330 329 332 331 331 327 325 323 322 323 325 326 326 326 326 327 327 321 319 318 316 315 315 316
326 328 333 337 337 336 336 336 337 339 340 339 340 340 339 340 342 341 341 341 341 341 341 341 339 339 338 337 337 335 336 337 337 338 340 339 339 340 340 339 339 339 339 339 337 335 334 335 336 336 336 336 335 333 336 335 333 332 332 331 329 327 328 331 330 331 326 327 326 323 319 318 321 322 325 326 327 325 322 319 318 316 315 315 315
327 331 335 337 337 337 336 337 337 338 340 339 339 339 339 340 341 341 341 341 342 341 342 341 341 340 340 340 338 338 335 336 336 339 339 339 338 339 340 339 339 338 339 339 339 336 335 336 337 336 336 336 335 333 336 334 333 333 333 332 331 327 328 329 331 326 327 325 319 320 319 319 314 316 318 321 323 322 321 319 319 317 316 315 314
327 330 335 336 336 336 337 338 339 338 339 339 339 339 340 340 342 342 341 341 342 342 342 341 342 339 340 340 339 337 336 335 334 334 336 338 338 337 338 339 339 338 338 339 339 337 336 336 338 338 336 336 336 334 336 336 334 334 334 332 331 329 327 327 329 327 327 329 324 319 317 316 315 314 317 318 322 319 319 319 321 317 316 315 313
325 328 333 336 336 336 337 338 339 339 340 341 341 341 340 340 342 343 342 342 342 342 342 342 340 339 338 336 334 333 332 332 331 332 333 334 336 337 338 338 338 337 338 338 339 339 336 337 339 339 336 336 337 334 334 337 335 335 334 333 331 330 330 328 326 329 327 328 327 324 323 318 317 316 317 312 319 322 320 318 320 317 316 316 313
322 322 325 329 333 335 336 337 339 339 340 342 342 341 341 340 342 343 342 342 343 343 342 342 340 339 338 337 335 334 333 332 332 333 334 335 336 336 336 337 337 337 337 337 338 339 338 337 338 339 337 335 338 335 333 336 336 336 336 334 332 331 329 327 326 326 324 327 327 326 328 323 321 318 315 313 311 317 319 317 319 319 317 316 315
324 325 327 330 328 329 333 337 338 339 341 342 342 342 340 340 341 342 342 342 343 343 342 342 340 339 338 337 336 335 334 333 333 333 333 336 334 335 335 335 336 337 337 337 337 339 339 338 338 339 338 336 337 336 334 335 337 337 336 335 333 332 330 328 326 327 325 325 327 325 325 322 322 322 321 317 314 311 312 317 319 319 318 316 315
325 326 327 329 330 330 330 332 337 339 340 341 342 342 341 341 341 342 342 342 342 343 342 341 341 340 339 338 337 336 335 335 334 334 333 335 333 334 335 335 335 336 337 337 337 338 340 339 339 339 338 336 337 337 336 335 336 336 335 334 332 331 331 330 328 328 326 325 324 323 322 320 321 320 321 318 312 311 309 311 310 315 315 315 316
324 327 328 330 332 333 334 334 334 338 340 341 342 342 341 341 341 341 341 342 342 342 342 341 340 340 339 338 337 336 335 334 335 334 333 333 332 332 334 334 334 335 336 337 337 338 339 340 339 339 339 338 337 335 336 336 336 336 336 335 334 332 332 331 329 329 329 327 326 325 324 318 318 319 318 317 315 314 310 310 310 310 308 312 316
322 325 329 330 332 334 336 335 336 339 340 341 341 341 341 341 341 340 341 342 342 342 341 340 340 340 339 339 338 336 336 334 333 333 333 331 332 332 333 334 334 334 335 336 337 338 339 340 340 339 340 339 338 336 335 337 336 336 336 336 334 333 332 331 329 330 331 329 326 325 326 323 320 318 317 317 315 312 311 311 311 312 310 310 314
321 323 326 328 329 334 335 337 338 338 340 340 341 341 340 340 341 340 340 341 342 342 341 340 340 340 340 339 338 338 337 336 334 333 333 332 332 332 332 333 334 334 334 335 336 337 339 339 340 339 339 338 338 337 336 336 337 336 335 335 334 333 333 332 331 329 329 329 328 327 327 326 324 322 322 319 317 316 314 311 310 312 314 315 317
320 322 323 326 329 332 332 331 328 331 338 340 340 340 340 340 340 339 339 341 341 341 340 340 340 340 340 340 339 339 338 337 335 334 334 333 332 332 331 331 333 333 334 334 335 337 338 338 339 338 338 338 338 336 336 336 335 335 335 335 333 332 332 332 330 330 329 329 329 328 327 326 326 323 324 322 321 318 315 310 312 313 310 312 315
315 320 323 325 329 331 330 329 329 330 335 340 340 340 340 340 339 339 339 341 341 341 340 340 340 340 341 341 340 339 338 338 337 336 335 334 334 333 333 332 332 333 334 335 336 337 338 339 339 339 339 338 338 337 337 337 336 336 335 334 333 332 332 331 331 330 329 329 329 328 327 327 327 324 324 323 321 317 314 312 310 311 313 311 313
306 318 323 326 328 330 330 331 334 337 339 340 340 340 340 339 339 339 339 340 341 340 340 339 340 340 341 341 341 340 339 338 338 337 336 335 335 334 334 334 333 334 335 336 336 337 338 338 339 339 338 338 337 337 338 338 337 336 336 335 334 333 331 331 330 329 328 327 326 327 327 327 327 326 324 324 324 320 317 314 311 308 309 310 309
302 312 321 327 328 329 331 334 337 340 340 340 340 340 339 339 339 339 339 340 341 340 340 340 340 341 341 341 341 341 340 339 338 336 336 337 336 335 335 335 335 334 335 335 336 338 338 338 338 338 338 338 337 337 337 336 335 335 334 334 334 334 333 331 330 329 328 327 327 326 324 325 326 326 325 324 324 322 319 316 314 311 307 305 308
303 313 320 323 324 325 325 329 337 340 341 340 340 340 339 339 338 338 339 340 341 341 340 340 340 340 341 342 342 341 340 338 338 337 336 337 337 336 336 336 336 336 336 336 336 338 338 338 338 338 338 337 336 336 336 336 335 335 334 333 333 332 332 332 330 330 329 327 326 325 325 324 323 323 324 324 323 322 320 318 316 314 312 308 305
300 311 320 323 324 324 325 324 325 334 341 341 340 341 340 340 339 338 338 338 340 341 340 340 339 339 340 341 341 341 341 340 339 339 338 337 337 337 337 337 337 337 338 338 338 338 338 341 338 338 337 336 336 335 335 334 334 333 333 333 333 331 331 328 328 328 328 327 325 324 324 323 321 323 324 323 324 323 320 318 317 317 315 311 308
299 301 313 320 322 324 323 324 325 326 334 340 341 341 341 340 340 339 338 339 340 341 341 341 340 340 341 341 342 341 342 341 340 340 339 338 337 338 338 338 338 338 338 337 338 338 338 339 338 338 337 335 334 334 333 332 331 330 329 329 327 328 328 327 327 327 327 326 325 324 324 324 324 324 323 324 324 323 321 319 318 318 316 313 310
298 301 304 313 320 321 322 322 323 324 328 336 341 341 340 340 340 339 340 340 340 340 341 340 340 340 340 342 342 342 342 342 341 340 339 339 338 338 338 338 338 338 338 339 339 338 338 338 338 338 336 334 333 332 332 331 330 329 328 327 327 327 327 327 327 327 329 328 327 326 325 325 325 324 324 324 323 323 322 319 318 317 313 312 311
297 300 301 306 315 321 322 323 325 327 332 335 341 341 341 341 340 339 339 339 339 340 340 340 340 339 339 340 341 342 342 342 341 341 340 340 339 338 338 339 339 338 339 339 339 339 339 339 339 337 336 333 332 331 331 331 330 328 328 328 327 328 327 325 326 326 327 327 326 325 324 323 321 323 323 323 322 322 321 319 317 316 312 310 309
297 298 301 304 309 318 322 325 327 329 334 338 341 341 341 340 340 340 340 340 340 340 340 340 340 340 339 340 341 342 342 342 341 341 341 341 340 340 339 339 338 339 339 340 340 340 339 339 339 337 337 334 333 331 330 330 329 328 327 327 326 326 325 323 323 326 325 325 323 322 322 320 324 324 323 323 322 321 320 318 317 316 313 310 310
299 298 301 302 307 313 318 323 328 332 336 339 340 341 341 341 340 340 339 339 340 341 341 341 341 340 340 340 341 341 342 342 341 341 341 341 341 340 340 339 339 339 340 340 340 340 340 339 339 338 337 335 333 331 331 330 329 328 327 326 325 325 324 322 321 324 325 323 322 322 322 324 325 324 324 323 322 321 321 319 317 316 314 311 311
298 299 300 301 303 307 316 319 325 330 333 336 338 340 341 341 341 340 339 339 340 341 342 341 341 340 340 340 340 341 341 342 341 341 341 342 342 341 340 340 340 340 339 340 341 340 340 339 338 337 336 335 333 331 330 330 329 328 327 326 324 324 323 322 321 321 323 322 322 322 323 324 324 322 322 322 322 322 320 320 317 315 314 313 312
296 297 298 300 300 302 311 318 320 325 328 325 321 319 320 328 339 340 340 340 341 342 342 341 341 340 340 340 340 340 340 341 341 342 342 342 342 341 341 340 340 339 340 340 340 340 340 339 338 337 335 334 333 332 330 329 329 328 327 326 324 323 322 321 321 319 325 323 321 321 322 323 322 320 319 320 321 320 320 318 317 316 314 314 314
296 296 297 299 301 302 304 310 316 320 324 323 322 320 321 320 321 328 339 340 341 342 341 341 341 340 340 339 339 340 340 340 341 342 342 342 342 341 341 341 341 340 340 340 340 340 340 339 338 337 336 334 333 332 331 329 328 328 327 326 324 323 322 322 319 318 321 322 321 320 320 322 321 320 318 318 320 319 319 317 316 317 316 314 313
297 297 296 298 299 301 301 303 308 314 319 322 322 321 322 322 323 322 322 333 341 341 341 341 341 340 340 339 339 340 340 340 341 342 342 342 342 341 341 341 341 341 340 339 339 339 339 339 338 337 335 333 332 332 331 329 328 328 327 325 323 322 322 322 320 318 319 321 321 320 320 321 320 319 318 318 318 319 319 317 317 317 317 314 313
296 298 298 296 298 299 301 301 302 308 313 317 319 320 320 321 324 325 324 323 331 340 341 341 340 340 340 340 340 340 340 341 341 342 343 343 342 341 341 341 341 340 340 340 339 339 338 338 337 336 335 333 332 331 330 329 328 327 326 325 323 322 321 320 320 319 319 319 320 320 320 321 321 320 319 318 318 318 318 317 317 317 316 314 313
294 295 296 297 296 298 299 300 301 303 308 310 313 316 319 321 323 323 323 323 323 329 339 340 340 339 340 340 341 341 341 341 341 342 342 342 342 341 341 341 341 340 340 340 340 339 338 336 336 335 334 332 332 331 330 329 327 326 326 324 323 322 320 319 319 319 318 317 318 320 320 320 321 323 320 319 320 321 318 316 316 315 315 314 313
295 295 296 297 298 298 299 300 300 301 303 306 308 311 316 319 321 321 321 322 324 324 331 339 339 339 340 340 341 341 341 341 341 341 341 342 342 341 340 340 341 341 340 339 339 338 337 336 335 334 333 332 331 331 327 320 322 326 325 325 323 322 319 318 318 317 315 315 317 319 320 325 323 322 319 313 311 313 316 318 317 316 316 315 313
296 296 295 297 297 298 299 300 300 300 301 303 306 308 311 314 318 319 320 322 322 322 325 336 338 339 339 340 340 340 340 340 341 341 341 341 341 341 340 340 340 340 340 338 338 337 336 336 335 333 332 331 331 330 315 309 310 315 324 324 323 320 317 316 315 314 312 312 312 315 317 323 322 322 316 309 308 308 308 309 311 314 317 317 314
297 297 296 296 297 296 299 301 301 301 301 302 303 305 308 311 312 315 317 320 323 325 325 328 337 338 338 338 339 340 339 340 341 341 341 341 342 341 340 340 340 340 339 338 337 336 336 335 334 333 332 331 329 320 307 307 307 308 316 323 322 319 316 314 314 313 312 312 312 312 312 314 311 308 305 304 305 304 304 305 306 306 306 307 310
298 297 297 296 296 296 297 301 303 304 304 303 304 304 305 308 310 312 313 314 318 325 328 330 334 338 338 338 338 338 339 339 340 341 341 341 341 341 340 339 339 340 339 337 337 336 335 335 333 332 331 330 328 312 305 305 306 305 308 317 320 319 315 314 313 313 312 311 310 310 310 309 310 315 311 303 302 300 300 299 300 301 302 303 302
298 298 298 297 297 297 298 300 302 305 308 308 308 306 306 308 309 310 310 311 314 317 322 326 328 332 337 338 338 337 337 338 339 340 340 340 340 340 340 340 340 339 338 337 336 336 335 334 332 331 330 329 328 312 305 304 304 303 304 311 319 317 315 314 313 312 312 311 310 310 309 308 308 308 303 303 302 301 303 304 303 302 303 305 303
298 298 297 297 297 297 297 298 302 305 305 307 309 310 310 310 310 310 310 310 310 311 314 318 323 327 333 337 338 337 337 337 338 339 339 339 339 340 340 339 339 338 338 337 336 335 335 333 332 331 329 327 328 307 304 303 303 302 302 309 318 317 315 314 313 313 312 312 310 310 309 309 308 305 304 303 303 302 303 304 301 300 298 298 298
298 298 298 296 296 296 297 297 301 306 308 308 308 307 308 310 311 311 310 310 310 310 310 313 318 323 328 333 337 337 337 336 337 338 338 338 339 339 339 338 337 338 338 337 336 335 333 332 332 331 328 325 326 304 303 302 302 301 301 318 317 316 315 314 313 312 311 312 311 310 309 308 309 306 306 300 303 304 304 302 300 297 297 296 296
298 299 299 298 298 297 297 299 298 301 305 307 308 309 308 307 308 309 309 309 309 309 309 311 315 320 325 330 335 337 336 336 336 337 337 338 338 338 338 338 336 336 336 335 335 334 333 333 331 329 328 326 322 306 302 302 301 300 305 319 316 315 314 313 313 312 311 311 312 310 309 308 308 307 303 296 298 305 304 302 300 297 297 297 298
299 298 298 298 298 298 298 299 297 298 300 304 306 309 308 307 307 307 307 307 308 309 310 311 313 318 323 329 334 335 336 335 336 336 337 338 338 339 339 336 336 335 335 335 335 334 333 332 330 329 328 325 320 308 300 301 301 300 311 319 316 315 313 313 312 311 311 311 312 315 313 308 307 307 299 295 296 304 304 302 299 298 297 296 296
300 299 296 296 297 298 301 302 300 300 301 303 306 308 309 308 308 307 307 306 306 307 309 311 313 317 322 327 332 335 336 336 335 336 337 337 337 338 338 336 336 336 335 335 332 333 332 331 330 328 322 323 318 309 299 300 300 301 312 319 317 315 313 312 311 310 309 310 311 315 313 309 309 306 297 296 296 304 304 301 300 299 298 296 296
300 301 299 298 299 300 302 304 305 305 305 306 307 308 309 310 310 309 309 308 307 308 309 311 313 316 320 325 331 334 335 336 335 336 337 337 338 337 337 335 335 335 334 333 331 332 331 330 327 325 321 322 317 312 303 299 300 301 307 319 317 315 313 311 311 311 310 306 310 310 309 300 300 299 296 295 295 299 304 302 300 300 299 297 296
300 300 300 298 299 301 302 304 305 306 308 309 309 308 308 308 310 311 310 311 310 309 310 311 314 317 320 324 329 334 335 336 336 336 337 336 337 337 336 335 334 334 333 332 330 331 331 328 325 324 321 320 318 314 306 298 300 302 304 311 317 316 315 313 311 309 310 308 308 309 308 301 297 297 296 295 295 296 300 303 301 301 301 300 296
301 301 299 298 300 301 302 303 304 307 308 308 308 308 307 307 307 308 311 312 311 310 310 311 312 315 319 323 327 332 335 336 336 336 336 336 337 337 336 335 334 333 332 332 331 329 330 327 324 323 321 320 317 311 310 299 300 302 303 306 316 316 314 313 311 310 308 308 308 308 307 302 296 296 295 295 295 296 297 304 301 297 295 293 298
299 299 299 300 299 301 301 302 303 304 306 308 308 306 306 306 306 307 309 309 310 310 310 311 312 314 316 321 326 330 333 336 335 335 336 335 336 336 335 334 333 332 332 331 331 330 328 324 322 321 320 319 317 312 305 305 299 300 301 303 306 309 303 313 312 310 308 308 306 307 307 302 295 295 294 294 295 295 298 302 296 294 293 293 296
300 299 299 301 301 301 301 301 303 304 305 307 308 307 306 305 306 307 307 308 308 309 309 309 310 312 315 318 324 328 333 334 334 334 335 335 334 335 334 333 333 332 332 331 330 329 327 323 321 319 318 317 315 314 305 303 303 298 300 301 302 303 302 311 313 312 309 308 306 305 304 297 295 294 294 294 294 296 299 294 293 294 293 294 298
302 303 302 299 300 299 300 300 300 302 304 306 307 307 306 306 306 307 305 306 307 308 308 308 309 311 314 318 323 327 331 331 330 332 333 333 332 333 332 333 332 332 332 331 330 328 326 324 321 319 317 315 313 312 310 303 300 299 299 299 299 299 300 302 310 310 309 308 302 299 298 295 294 294 293 293 293 295 293 291 292 293 298 296 296
299 301 302 305 303 299 299 299 299 301 302 303 305 307 306 306 307 308 307 307 307 307 307 307 309 310 313 318 321 326 330 330 331 331 330 334 333 331 332 332 332 332 332 331 329 327 326 324 322 320 317 315 312 311 310 307 302 301 299 297 298 298 300 302 306 307 302 301 298 296 295 294 293 294 295 296 296 296 292 292 292 295 298 296 295
298 300 301 304 305 306 303 301 300 300 302 303 303 305 306 306 307 308 308 308 306 306 306 307 308 310 312 316 320 325 328 330 330 331 332 331 332 333 332 329 331 332 331 330 328 325 325 324 322 320 317 314 312 311 310 308 306 305 305 300 300 300 299 299 304 305 302 302 298 298 296 294 295 294 295 295 296 294 292 293 293 298 297 296 295
300 301 302 302 304 306 307 307 307 307 306 305 304 303 304 305 306 307 307 307 306 306 306 307 307 308 310 315 320 312 320 329 329 331 331 330 332 333 332 331 331 332 331 330 327 325 325 324 323 320 317 313 311 311 310 309 307 307 306 303 302 303 304 305 304 304 304 302 298 294 294 296 295 296 295 294 293 294 294 292 294 296 295 295 297
302 302 302 304 305 307 309 308 308 308 309 310 310 309 307 305 306 306 306 306 306 304 306 306 308 309 310 313 319 323 325 328 330 330 332 332 332 331 331 332 334 335 334 332 330 329 327 328 325 321 316 313 311 311 311 304 307 302 302 304 302 302 303 304 303 299 301 298 296 296 295 295 296 295 293 294 293 292 292 294 294 294 295 295 294
310 309 307 307 307 308 309 309 308 309 309 309 310 312 313 313 311 309 308 307 306 306 306 307 308 309 310 314 319 324 326 326 328 329 329 319 307 310 324 333 331 318 314 314 316 328 329 329 326 323 320 316 314 314 301 299 298 298 298 300 301 298 299 301 297 296 299 299 298 297 297 296 296 296 296 293 294 294 294 294 293 292 293 293 293
307 308 310 311 311 312 312 311 311 311 312 312 312 313 313 314 317 316 313 311 310 309 309 309 309 310 311 316 321 325 328 328 330 330 328 325 319 311 301 300 307 315 308 306 306 309 310 312 321 322 315 307 306 300 298 299 297 297 297 297 296 295 296 295 294 297 300 298 295 295 295 296 296 297 296 295 293 293 291 292 293 293 293 293 292
Wind_Speed
11 8 6 7 7 8 7 9 11 11 11 13 11 9 12 14 12 11 9 11 11 10 8 8 9 7 7 10 10 9 8 7 7 7 9 8 9 9 8 7 7 7 6 6 6 5 5 4 3 3 3 4 5 6 6 7 7 8 7 5 9 7 4 4 5 7 8 4 4 5 5 3 2 3 2 2 2 4 6 6 5 5 4 4 3
5 4 7 8 8 6 5 7 7 11 10 12 13 14 13 13 13 12 9 10 12 11 9 6 5 6 5 6 6 8 8 7 6 7 8 8 9 9 8 7 7 7 6 6 6 5 4 4 3 4 4 5 6 4 5 6 6 7 7 5 1 7 7 8 8 8 3 6 6 3 3 3 3 2 2 2 1 1 7 7 6 6 6 5 4
9 11 11 12 12 9 7 7 9 10 10 12 12 13 12 11 11 10 10 11 11 11 9 8 4 5 5 5 7 5 4 6 7 8 8 9 9 9 8 8 7 6 7 6 6 5 5 4 4 5 4 5 5 4 6 6 7 9 9 9 6 1 2 5 8 7 6 4 4 4 2 1 1 1 1 1 1 2 3 6 7 7 7 6 5
13 11 10 11 13 12 10 9 7 5 6 6 7 10 11 11 11 11 11 11 10 10 9 5 6 4 4 6 6 8 6 4 4 7 7 8 8 7 7 7 7 7 7 6 5 5 5 5 4 4 5 5 6 6 6 7 6 7 7 7 9 8 4 6 6 3 6 10 5 3 2 1 1 5 3 1 0 1 3 5 5 5 6 6 5
7 5 9 9 9 15 16 11 8 6 5 7 10 12 10 16 16 15 13 13 11 9 8 7 7 6 5 4 5 4 3 5 5 5 8 8 8 7 8 7 8 7 7 7 6 6 5 5 5 5 5 5 6 6 7 8 8 8 8 7 8 9 8 5 7 4 6 7 8 5 2 2 5 2 4 2 1 1 1 1 3 6 6 7 7
17 17 10 11 14 12 14 17 15 10 9 9 9 12 12 13 16 17 14 12 13 13 11 9 9 9 8 8 8 7 8 8 9 8 7 8 9 7 7 7 8 7 7 7 7 6 6 6 5 5 5 6 6 6 6 7 8 8 9 9 8 6 10 8 8 5 6 7 5 1 5 6 5 4 5 5 1 0 0 3 2 7 7 8 6
7 4 5 2 3 8 12 15 19 19 14 12 11 10 9 10 11 12 12 12 12 12 14 11 9 9 11 10 7 8 9 5 5 5 7 7 7 8 7 6 7 8 7 7 7 6 6 6 6 5 6 6 5 5 6 8 9 9 8 7 8 7 5 8 10 9 3 6 6 5 1 1 6 8 5 5 2 2 4 5 3 6 7 8 7
13 13 13 15 8 5 9 13 15 19 22 17 14 13 13 12 13 14 12 12 11 13 15 14 13 12 11 9 8 8 8 8 7 6 5 6 7 8 7 7 6 6 8 7 7 7 7 7 7 6 6 6 6 6 7 6 7 7 9 9 7 8 9 9 8 8 11 8 8 6 1 2 6 3 6 8 5 7 6 2 1 4 5 6 8
18 15 14 15 18 19 13 14 13 16 17 21 20 17 15 14 14 13 13 13 11 13 15 15 13 13 11 10 9 6 6 7 6 6 7 6 7 7 8 7 7 6 7 8 7 7 7 7 7 6 6 6 6 6 6 7 8 9 8 8 8 7 8 7 8 10 9 8 6 6 2 2 3 1 4 4 4 5 2 8 5 0 1 4 5
14 19 19 19 20 21 24 26 21 13 12 15 20 18 16 14 14 13 13 12 12 13 14 15 14 11 10 9 11 7 7 6 6 7 6 6 7 8 8 8 7 7 6 6 7 8 8 7 7 8 7 7 6 7 5 6 7 8 11 10 9 9 7 7 9 8 9 7 8 7 7 3 2 1 4 7 2 3 7 10 8 9 9 6 3
13 15 19 20 21 22 20 20 18 14 11 11 11 14 14 14 14 15 15 12 12 13 13 14 13 12 12 12 11 10 9 8 7 6 6 6 7 7 8 8 7 8 7 7 7 7 8 7 7 7 7 7 7 7 7 7 7 8 8 9 10 11 8 8 7 6 8 8 7 7 9 10 10 9 8 8 6 4 3 6 7 10 9 7 5
15 16 18 19 15 10 6 7 9 14 13 13 12 11 12 13 14 15 13 12 12 13 13 13 13 13 12 11 11 10 10 9 10 9 8 8 7 8 7 7 8 8 8 8 7 7 7 7 7 8 8 7 8 7 7 7 7 7 7 7 8 9 8 9 8 8 8 7 8 7 8 7 5 6 6 9 10 8 7 6 9 5 3 3 3
14 16 16 15 15 16 16 14 4 8 9 14 15 13 12 13 15 16 15 14 13 13 14 14 13 13 13 13 12 9 10 10 9 9 8 8 7 7 7 8 8 8 9 9 9 9 7 8 8 8 8 8 7 7 7 7 7 7 7 8 8 9 9 9 9 10 10 9 10 8 7 5 8 5 6 8 8 3 6 4 2 6 5 4 2
7 12 15 17 16 16 16 15 17 16 15 11 13 14 14 14 15 16 16 15 13 13 14 15 15 14 13 13 12 10 10 10 9 10 9 8 7 8 8 8 8 10 9 10 9 8 7 8 8 8 8 8 7 8 8 7 7 7 7 8 8 9 8 10 10 10 9 9 6 6 7 8 8 5 6 6 8 6 6 8 7 2 3 4 1
4 9 14 16 19 19 17 17 17 19 21 17 14 14 14 14 15 17 15 13 13 14 14 16 15 13 12 11 11 10 10 9 9 9 9 9 8 8 8 8 8 8 9 7 6 8 8 7 8 8 8 8 7 7 7 7 7 7 7 8 8 7 8 8 7 7 8 8 7 7 8 7 7 6 7 9 9 10 10 9 11 9 3 3 4
5 7 9 13 14 15 16 17 18 19 20 18 18 15 15 15 15 16 16 15 14 14 14 15 15 13 13 13 13 12 10 9 7 7 9 10 9 10 9 9 8 6 6 5 7 7 8 8 8 9 8 8 8 8 7 7 7 7 6 7 8 6 8 9 8 8 8 8 8 6 5 7 6 6 7 8 9 9 7 9 11 11 12 7 3
7 8 10 11 10 11 7 5 12 18 19 20 19 18 19 17 15 15 15 14 16 16 15 14 13 12 13 13 12 11 12 12 13 13 12 9 9 9 9 9 7 7 6 6 7 7 7 7 8 8 8 8 7 8 8 7 7 7 8 7 8 6 7 8 7 7 7 6 6 7 7 5 5 3 2 1 1 2 3 6 9 13 12 11 9
4 8 13 17 17 15 15 11 7 12 19 22 22 19 18 16 17 17 15 16 15 15 15 13 13 13 13 13 13 14 14 15 13 11 10 9 9 8 8 8 9 8 7 6 7 8 8 8 8 8 8 7 8 7 7 8 7 7 7 7 7 6 6 4 5 5 6 5 4 4 4 4 3 4 4 4 5 6 7 9 8 7 8 11 9
3 4 9 9 12 15 16 16 14 13 15 17 21 20 16 15 16 17 18 18 17 15 15 13 13 12 12 14 15 14 13 12 11 10 9 10 11 10 10 9 7 8 8 7 8 8 9 8 8 8 7 8 7 8 7 7 7 7 5 6 4 5 5 5 5 5 4 5 5 5 5 5 5 5 5 5 5 6 6 7 7 6 4 3 9
4 4 5 7 11 13 16 17 16 14 15 14 13 15 18 16 16 16 15 14 15 15 14 14 13 11 12 14 14 14 14 13 12 12 12 13 13 12 11 9 10 8 8 9 9 9 9 9 8 8 8 8 8 7 8 8 7 6 6 6 5 5 5 6 5 4 4 5 5 7 7 6 5 5 4 5 6 6 6 7 8 8 6 5 6
7 6 5 7 9 11 14 16 19 17 17 16 14 15 16 15 16 17 17 16 15 14 13 12 11 12 12 14 14 13 14 13 12 12 12 12 10 10 11 11 8 9 9 9 10 11 10 10 9 8 8 8 8 8 7 7 7 7 6 6 6 6 7 6 4 5 4 4 5 5 5 3 3 4 4 4 5 6 6 6 7 7 5 5 6
8 6 7 6 8 12 12 13 15 20 22 20 16 14 14 16 17 17 17 16 17 15 14 13 11 11 12 13 13 12 13 12 14 14 13 12 11 11 11 9 11 10 10 11 11 10 10 10 10 9 9 9 9 9 8 8 8 7 7 6 7 7 7 5 5 5 5 4 4 5 4 3 4 4 5 5 5 6 7 7 7 7 6 6 5
9 6 6 6 7 9 14 15 15 17 18 19 18 16 16 17 17 16 17 17 16 16 15 14 14 13 13 11 11 11 11 11 12 13 14 13 12 12 10 11 11 10 10 11 11 11 11 10 10 9 9 9 10 9 9 9 8 9 9 7 7 7 7 6 6 6 7 5 5 5 5 4 4 5 5 5 5 6 6 7 7 6 6 6 6
7 9 6 8 7 6 6 12 15 14 13 13 11 13 16 17 17 16 18 19 17 14 14 14 13 13 12 11 11 10 10 10 12 11 13 13 12 11 11 11 11 10 11 10 10 11 10 11 10 9 10 9 9 9 9 9 10 9 9 9 7 7 6 6 7 7 7 6 6 6 6 5 5 5 5 5 5 6 6 6 6 6 6 6 6
6 7 11 6 5 7 8 10 12 12 11 9 7 5 2 1 7 15 17 17 16 14 15 14 14 14 12 12 11 11 11 11 12 11 12 12 11 11 10 12 11 11 11 10 10 10 11 11 11 11 10 10 10 10 10 9 9 9 10 9 8 7 6 6 6 6 7 7 7 7 7 6 5 5 4 5 6 7 6 6 7 7 7 5 5
8 7 8 10 9 9 8 8 10 12 12 10 8 5 4 5 4 3 7 12 14 13 14 14 13 13 12 12 12 11 12 12 12 10 10 10 11 11 11 11 12 12 11 10 11 10 11 12 11 10 10 10 10 10 11 11 10 9 9 8 8 7 7 7 6 5 7 7 7 7 6 7 7 7 6 5 6 8 7 7 7 6 6 5 5
11 8 7 8 7 10 11 10 10 11 11 12 11 9 8 8 6 4 3 8 10 12 13 12 12 13 12 12 12 12 12 12 11 11 9 9 9 10 11 12 11 12 12 11 11 12 10 11 10 9 10 10 10 10 10 10 10 10 10 9 8 7 7 6 5 5 6 7 7 7 7 7 8 7 7 7 7 7 7 8 8 7 6 5 6
9 10 6 8 10 9 11 11 10 10 11 11 11 13 12 9 10 9 8 5 10 9 11 12 12 11 11 12 12 12 12 12 11 11 11 10 9 9 10 11 10 11 12 13 13 12 10 9 10 9 9 9 10 9 9 9 9 10 9 8 8 8 7 6 5 5 5 7 8 7 8 8 8 8 7 7 7 7 6 7 7 6 6 6 6
9 10 11 7 8 10 10 10 11 11 12 11 11 12 13 11 10 9 10 11 11 15 10 11 11 12 12 11 11 10 10 10 11 11 12 11 10 10 10 10 11 11 11 12 11 11 11 10 9 10 10 9 10 10 9 9 9 9 9 9 8 8 7 6 5 6 5 6 7 7 7 8 8 10 12 10 9 7 7 7 6 6 6 7 5
12 12 13 13 9 10 12 11 10 11 11 11 11 11 11 11 11 11 10 10 11 11 15 11 12 13 11 11 11 10 11 11 11 12 12 11 11 10 10 10 12 12 11 11 11 11 11 12 11 10 10 10 9 8 11 16 13 10 9 8 7 7 6 6 6 6 6 5 7 7 7 12 13 13 12 13 12 11 10 8 7 7 7 6 6
13 12 11 13 12 6 10 11 10 12 13 12 11 10 11 11 12 11 12 13 13 14 17 12 13 12 11 11 11 12 11 12 12 12 11 11 11 10 10 11 11 11 12 11 12 12 11 11 12 12 11 10 9 9 16 17 16 16 11 8 8 7 5 6 6 7 6 6 4 6 6 9 9 8 7 12 13 13 12 12 11 11 10 9 7
17 14 12 12 14 8 7 10 12 11 10 11 10 9 9 10 10 11 13 13 16 18 17 14 10 10 10 11 11 11 12 12 12 12 12 11 11 10 10 11 11 11 11 11 12 13 12 11 10 11 12 11 10 12 18 17 17 16 13 9 7 7 6 7 7 8 7 6 6 6 4 4 5 6 6 5 5 8 11 13 13 13 14 14 14
19 16 12 11 13 12 8 9 8 11 11 11 12 10 11 11 11 10 10 10 12 15 17 15 11 9 11 11 11 11 12 12 12 12 11 11 11 11 11 11 13 12 11 12 13 12 12 12 12 12 12 11 9 14 18 18 17 16 16 12 7 7 8 8 7 8 7 7 6 7 5 4 4 9 7 6 6 5 4 6 7 5 4 10 14
18 16 14 13 12 12 9 9 9 9 12 12 11 13 12 12 12 11 10 10 11 10 11 11 10 10 10 11 11 11 12 12 11 11 11 11 11 12 12 11 10 10 11 12 12 13 12 12 12 12 11 10 10 13 19 18 17 17 16 13 7 9 9 9 9 8 7 7 7 8 7 6 4 4 5 6 6 6 6 5 4 3 3 3 2
18 17 14 12 12 13 11 6 7 7 5 5 7 10 10 9 11 11 10 10 9 9 7 7 9 9 9 10 11 12 12 11 11 11 11 12 12 12 12 11 10 12 13 14 14 13 12 12 12 11 10 10 9 16 18 19 17 17 17 13 8 8 8 8 8 8 9 8 8 8 8 8 7 6 6 7 7 7 6 5 4 3 3 2 2
16 16 15 13 11 13 11 10 6 5 8 8 8 5 6 10 9 10 9 9 8 7 7 6 6 7 10 10 11 12 12 11 11 12 12 13 13 13 13 11 10 10 10 10 9 10 11 12 12 11 11 11 10 18 19 19 18 17 18 10 9 9 9 8 8 7 7 7 8 8 8 7 7 7 8 12 10 8 7 6 5 3 2 1 1
11 14 15 14 12 12 12 8 6 7 6 8 8 9 10 7 7 9 9 7 7 7 7 7 7 6 7 9 11 12 12 12 12 13 13 13 13 13 12 10 10 11 11 11 12 12 11 12 12 12 12 11 10 15 20 20 18 18 15 9 9 8 8 8 8 7 7 7 7 7 8 8 7 7 10 13 12 11 7 7 7 5 3 2 1
11 6 11 13 11 10 9 9 9 7 6 5 6 10 9 9 10 8 8 8 8 8 7 7 7 7 8 8 10 12 13 13 13 14 15 14 13 11 12 10 12 12 12 12 11 10 10 11 13 13 13 12 10 13 19 19 19 19 16 11 9 9 8 8 7 6 6 6 8 12 9 8 8 8 11 14 13 11 8 8 7 7 5 4 2
15 11 8 11 12 12 10 8 9 8 8 6 5 5 8 8 8 8 8 8 8 6 6 7 7 7 7 8 10 12 14 14 15 15 14 14 13 12 10 10 11 11 11 10 9 9 9 9 11 12 14 14 11 12 18 19 20 20 16 10 10 8 9 7 7 7 5 6 6 10 14 11 10 10 14 15 15 11 7 8 8 7 7 6 6
15 12 10 10 10 9 8 9 9 9 8 8 6 5 6 7 7 6 7 6 6 6 5 4 4 5 6 9 10 12 14 15 16 15 13 13 11 10 11 11 10 9 9 9 9 10 11 10 8 9 10 12 12 11 16 20 20 21 20 12 9 10 10 8 7 8 7 5 6 6 10 15 15 14 15 16 15 13 8 6 6 7 7 7 4
15 13 11 10 10 10 11 10 9 8 7 8 7 6 6 5 5 7 7 7 7 6 5 4 4 4 5 7 9 12 14 15 14 14 13 12 11 12 11 11 11 10 9 9 10 10 10 9 9 9 10 10 11 13 14 19 20 21 20 17 10 11 10 10 9 8 8 8 7 7 7 11 15 15 15 15 14 14 10 8 8 8 8 6 8
13 11 9 10 10 9 10 9 8 10 8 6 6 7 6 6 5 6 7 8 7 6 6 5 4 4 4 6 9 11 13 13 13 12 12 12 12 12 12 12 11 11 12 12 11 10 10 9 8 9 10 11 11 17 14 17 20 21 20 20 12 11 11 10 9 8 7 7 8 8 8 11 15 14 14 14 15 13 13 8 9 9 8 13 10
10 7 8 11 10 10 10 10 7 7 7 7 8 6 5 5 7 7 6 5 6 7 7 5 4 4 4 5 6 11 12 10 12 13 14 14 12 12 11 11 12 12 12 12 12 10 9 8 8 8 8 9 10 12 19 17 18 19 21 20 18 13 14 12 11 10 10 9 7 8 8 13 15 14 14 14 13 13 11 8 11 11 12 13 9
6 7 8 10 10 10 9 8 8 7 7 7 8 7 6 5 6 6 5 5 5 5 5 5 4 4 4 4 6 9 11 10 12 13 14 14 13 12 12 11 12 12 11 11 10 10 9 9 10 9 7 7 8 9 13 20 19 20 18 19 17 18 18 11 10 10 9 9 8 8 9 14 15 14 14 14 13 12 9 11 14 14 14 12 7
9 6 5 5 8 8 8 6 5 6 7 7 7 8 7 7 5 4 4 5 5 3 4 4 4 4 4 4 5 7 10 9 8 11 13 13 12 12 11 11 12 12 12 12 11 11 11 10 10 10 9 8 7 7 8 13 18 19 17 17 17 18 18 16 10 7 9 9 11 14 13 15 15 14 15 13 11 11 11 11 12 14 12 7 7
3 3 3 4 4 4 5 5 5 5 6 6 6 8 8 6 5 5 5 4 3 4 4 5 4 4 5 5 5 7 9 12 13 12 11 12 14 14 13 12 12 12 12 12 11 11 11 10 10 10 10 10 8 7 8 8 8 11 12 15 17 18 17 15 13 11 13 15 15 15 15 14 13 11 9 7 7 7 9 10 12 12 8 8 7
3 4 4 3 3 3 4 5 6 5 6 6 7 7 8 7 8 7 6 5 5 5 6 5 6 6 5 5 6 7 8 10 10 10 12 12 12 14 14 13 13 13 13 12 11 10 10 11 11 10 9 9 9 9 9 9 9 9 7 6 8 8 10 10 7 8 10 9 10 10 10 11 10 12 10 8 7 6 4 4 6 7 7 8 8
1 0 1 2 3 4 5 5 6 5 6 6 6 7 8 8 8 7 7 7 7 7 8 9 8 6 6 6 7 11 12 10 10 12 11 10 10 13 14 14 14 15 14 13 12 12 13 13 12 10 10 9 10 10 10 12 12 11 9 7 6 8 9 8 8 7 7 7 7 6 8 7 7 6 5 3 3 5 5 5 6 6 7 6 8
2 3 3 5 5 6 6 6 6 5 5 6 7 8 9 9 8 8 7 8 9 9 9 9 9 8 8 7 8 8 9 10 11 12 13 15 16 13 12 12 14 15 16 16 14 14 14 12 11 10 11 11 10 12 14 13 15 16 15 11 8 8 8 8 10 13 9 7 7 7 6 7 8 8 7 6 6 6 5 4 5 5 6 6 6
5 2 7 7 6 6 6 5 4 3 3 4 4 3 3 5 7 8 9 10 10 10 9 10 9 10 10 9 8 9 10 12 12 12 11 6 5 3 9 14 14 16 19 20 17 15 14 11 11 11 14 16 15 12 12 15 16 19 21 23 20 17 16 13 15 19 14 9 8 9 9 9 9 8 8 8 7 7 6 6 6 5 6 6 7
13 14 11 2 3 6 6 5 5 4 6 6 5 4 4 4 5 8 10 11 10 10 10 9 10 11 11 10 9 9 10 11 12 14 12 12 8 2 8 7 4 3 6 10 14 14 15 17 15 12 11 15 15 19 23 22 22 23 22 19 16 17 18 19 20 15 10 11 9 9 9 9 10 9 9 9 8 8 8 7 7 7 6 7 7
Wind_Direction
200 197 183 178 180 185 192 191 185 181 177 177 176 177 164 162 164 176 186 178 169 174 173 171 169 154 154 170 174 178 172 166 162 165 168 173 173 178 182 185 176 173 166 157 165 164 165 170 158 182 172 206 185 196 159 158 155 150 143 136 135 126 123 139 135 128 121 86 77 77 63 39 82 98 92 74 101 183 167 166 156 149 157 164 168
140 173 171 151 154 168 171 181 180 174 184 179 176 173 172 166 169 174 170 186 181 178 172 171 170 164 146 167 158 172 166 162 155 166 169 170 173 177 180 183 180 176 170 166 162 167 159 162 177 194 180 207 209 175 155 159 146 140 138 115 119 149 153 165 158 133 140 156 145 125 57 36 38 46 50 59 69 141 168 162 161 162 167 174 166
191 193 190 166 154 154 162 174 192 190 178 180 177 168 166 166 170 167 178 183 186 176 172 173 162 154 148 167 160 156 170 169 154 167 165 166 176 180 179 180 177 177 173 168 161 166 163 163 188 196 194 195 208 145 159 157 156 152 155 147 139 73 113 167 170 175 138 126 95 99 166 150 316 352 0 54 91 78 124 163 168 170 173 172 172
179 186 188 178 164 159 159 167 177 169 161 170 176 178 171 171 171 173 179 184 183 182 175 157 145 134 130 150 159 157 165 150 136 151 158 159 174 179 181 179 177 178 176 170 165 162 163 175 189 193 197 198 196 160 162 162 161 161 160 161 147 141 158 181 200 187 145 135 153 189 131 112 286 233 194 230 115 85 112 147 169 182 173 167 168
181 200 182 176 186 173 168 164 154 159 173 185 183 184 186 180 177 178 179 182 181 171 164 150 139 134 130 124 138 123 99 142 143 146 164 169 169 178 189 183 179 178 178 175 168 165 167 180 188 197 191 204 208 167 167 166 171 171 167 166 176 156 163 171 198 204 186 183 141 127 121 196 222 163 136 251 155 135 280 145 179 183 176 176 179
173 182 202 191 185 193 176 165 165 171 176 192 202 199 195 192 181 175 177 180 178 170 163 161 166 158 157 155 166 176 176 170 187 167 164 172 179 179 184 186 182 179 179 181 175 163 169 180 191 192 197 200 210 182 168 160 168 172 178 176 183 187 161 169 184 212 197 214 244 243 155 172 175 168 141 219 62 324 126 272 217 184 181 180 182
156 143 122 199 259 218 199 185 174 171 182 183 191 210 208 200 184 178 178 180 178 172 165 166 169 175 178 184 180 178 170 179 153 162 161 173 164 173 181 191 190 178 184 184 178 174 170 178 187 194 197 201 208 187 173 172 173 176 175 185 184 172 164 170 185 190 173 239 235 246 327 129 133 136 195 79 207 222 194 217 241 182 180 179 176
179 183 183 174 180 275 254 214 192 183 174 175 191 196 198 196 191 184 179 180 184 175 173 174 179 184 181 178 174 175 178 170 161 160 154 157 169 173 172 190 196 187 181 186 179 178 178 178 184 192 198 203 198 198 183 177 170 178 180 187 179 180 178 177 184 181 186 209 209 229 279 100 171 121 152 170 170 182 205 235 290 171 179 189 172
181 186 187 191 183 184 214 258 250 202 186 176 179 187 191 195 195 188 180 177 184 182 177 181 183 184 185 178 174 175 159 163 155 150 157 160 168 173 173 188 196 195 189 185 184 183 184 183 181 191 197 201 198 207 190 171 177 175 184 184 187 190 192 185 172 190 199 207 176 225 154 127 158 86 147 115 160 179 190 194 193 16 221 210 187
196 185 189 189 194 194 193 198 217 226 200 189 177 177 183 187 191 189 186 182 180 185 185 185 183 177 179 184 180 168 159 159 161 165 168 159 170 176 176 184 193 196 196 193 186 187 187 186 184 189 197 197 196 204 197 179 179 184 185 189 188 190 195 188 190 191 198 198 196 189 181 110 116 115 179 191 214 178 174 197 190 177 189 203 169
196 200 194 194 198 200 197 197 202 206 197 186 185 177 177 183 188 189 190 184 181 184 185 186 184 183 185 183 181 172 167 159 167 183 176 171 175 177 180 185 190 194 194 198 192 190 191 191 189 192 193 195 196 199 200 189 187 185 188 191 191 191 192 194 202 206 196 199 197 191 198 186 184 189 190 192 188 180 170 202 187 197 188 165 197
200 202 205 205 197 183 186 230 223 202 191 185 183 183 181 183 186 189 189 185 185 185 185 188 187 188 184 177 179 177 172 174 180 190 187 183 181 180 179 175 190 194 196 198 198 194 191 195 194 192 194 194 198 197 198 195 186 183 180 188 196 199 194 193 197 198 201 206 208 203 210 203 202 207 193 186 196 206 172 177 191 150 152 155 99
203 203 205 203 195 190 185 178 192 285 227 190 183 183 185 186 187 187 189 187 187 186 188 189 190 188 182 181 181 177 180 179 182 193 190 190 180 177 178 190 184 191 201 201 204 193 190 194 196 196 195 197 195 192 200 198 189 180 183 186 191 192 196 196 197 204 198 201 209 208 207 187 212 196 159 186 212 149 138 145 193 180 147 126 132
214 213 207 198 198 196 189 181 174 186 228 218 193 184 185 189 187 188 190 186 184 188 192 191 194 190 185 181 178 177 184 184 187 197 197 190 182 187 189 192 194 199 198 207 200 193 195 198 198 199 196 194 190 191 192 198 194 186 183 186 193 199 195 198 203 204 203 213 205 206 213 211 215 183 186 188 197 148 173 171 143 104 101 120 110
252 223 205 204 198 191 187 187 183 187 192 196 197 193 189 190 186 188 186 188 187 191 192 195 194 189 184 182 179 179 184 188 192 194 192 195 194 193 194 194 201 206 207 207 195 196 195 193 197 196 197 196 187 186 187 189 193 188 184 191 193 190 195 194 203 196 204 209 208 208 215 221 218 186 176 202 190 190 182 156 146 137 126 155 165
217 216 213 202 197 198 194 191 188 189 190 188 189 187 190 192 188 187 186 184 188 194 200 196 193 187 183 182 184 183 183 185 187 186 193 191 193 196 200 200 203 202 211 203 207 199 197 194 196 199 194 191 185 182 178 176 179 178 180 181 191 185 188 192 197 194 206 206 210 214 212 228 223 203 185 193 198 198 174 158 164 154 145 175 161
194 202 196 191 184 174 174 224 212 192 187 185 185 187 189 186 186 190 190 187 189 194 198 201 194 185 186 186 184 182 181 187 193 194 190 185 186 190 194 196 193 195 203 204 207 207 203 196 197 198 193 187 181 180 176 175 173 174 173 177 184 186 187 198 190 192 200 192 197 202 214 223 230 222 198 179 79 83 139 173 171 175 172 150 165
248 225 207 189 183 187 187 181 241 248 196 184 184 185 186 184 185 186 186 189 196 196 197 198 194 190 188 187 189 189 191 194 193 190 183 179 187 188 189 192 196 194 198 201 204 209 208 199 196 195 190 181 180 177 176 174 172 177 180 182 186 179 189 190 195 196 203 190 189 186 200 217 204 206 209 167 181 171 156 175 189 171 166 164 167
169 241 230 214 199 187 183 182 191 238 248 207 184 181 182 183 186 187 188 192 192 194 197 198 196 192 188 187 189 193 196 195 193 186 178 185 189 190 194 196 184 192 194 198 202 210 207 203 196 193 182 180 175 176 173 171 172 171 178 183 183 180 192 208 207 190 197 181 193 193 186 201 196 206 199 175 186 175 169 165 175 156 177 185 164
189 179 237 225 194 187 185 181 181 207 250 242 207 185 180 183 184 190 195 194 194 196 194 194 197 200 198 189 190 194 193 192 189 183 185 193 195 190 190 189 194 185 196 197 204 208 208 205 196 190 182 174 173 175 172 170 168 174 172 178 185 178 194 209 220 205 184 191 194 201 197 202 191 189 190 178 170 175 163 165 171 172 170 166 160
232 184 193 214 208 202 198 192 182 191 216 224 216 196 188 186 188 190 191 193 196 198 193 198 195 201 201 195 191 192 195 194 191 190 191 195 193 191 192 194 176 194 191 197 205 208 208 206 198 190 183 174 171 170 173 166 169 168 175 174 172 180 187 205 200 204 202 191 195 203 209 202 138 161 160 160 166 166 167 168 169 166 163 156 153
222 222 177 197 203 203 205 203 199 191 205 208 211 201 196 192 192 193 193 192 192 193 194 194 194 201 202 199 194 194 199 197 193 191 193 192 191 193 193 181 191 195 189 198 203 206 207 204 200 193 186 175 170 168 168 166 168 168 170 174 173 176 184 185 183 191 193 191 177 187 206 175 154 158 162 173 169 162 161 160 171 172 168 168 171
268 219 203 194 187 194 197 202 204 205 205 207 200 196 197 196 194 193 193 196 194 192 192 189 190 195 203 203 196 196 197 204 204 197 194 192 191 188 184 188 193 192 193 197 200 202 203 202 200 192 186 177 170 166 168 167 170 170 170 178 180 179 185 186 186 191 188 181 175 185 190 171 161 165 176 178 159 161 160 166 169 173 171 175 178
248 266 217 191 193 195 188 189 198 205 211 210 211 210 200 194 193 194 197 195 192 192 189 189 191 195 196 194 196 197 199 201 207 210 203 194 189 185 179 188 191 188 192 198 197 197 199 200 198 190 184 176 169 164 166 170 169 170 171 177 182 188 191 191 189 183 182 179 182 179 189 177 174 176 170 159 159 155 163 166 170 179 180 173 179
264 248 255 221 187 178 190 181 189 202 198 188 181 158 93 269 228 202 197 196 193 189 187 189 188 190 189 192 196 195 198 202 208 212 211 200 191 184 180 185 187 192 192 189 195 194 196 198 199 190 181 176 171 165 164 167 169 170 172 177 184 188 191 192 190 177 179 180 182 186 182 176 180 183 173 161 160 165 168 169 175 184 188 172 165
263 251 255 241 200 196 185 189 185 189 186 185 185 200 221 162 132 328 253 206 195 190 188 186 186 186 188 190 192 195 200 204 206 212 216 209 197 188 183 184 187 192 190 191 191 193 196 198 198 188 180 174 170 168 167 166 168 170 173 179 182 184 188 188 185 176 179 180 184 187 177 174 184 186 189 169 167 174 174 179 183 186 186 175 171
265 248 217 247 244 196 196 190 182 185 186 185 187 194 203 204 203 170 330 294 224 193 188 186 186 187 188 190 190 195 199 202 204 207 210 212 209 196 185 185 188 189 188 191 193 193 196 194 192 183 180 173 171 171 168 166 167 170 174 177 180 183 186 184 187 179 184 182 186 183 176 179 188 191 185 182 175 180 182 187 192 191 183 172 182
271 280 248 200 233 235 201 193 182 181 185 184 185 183 199 217 207 189 202 270 296 234 191 186 182 187 189 191 194 195 198 200 201 203 207 210 209 202 194 188 182 187 192 192 192 194 191 187 185 183 180 174 172 173 172 170 170 172 173 178 178 181 180 183 191 194 186 187 188 184 181 187 191 190 187 185 180 181 183 187 194 189 178 176 184
263 265 271 252 198 226 236 206 189 176 180 185 182 183 188 192 195 190 179 193 254 279 227 187 185 188 191 191 190 193 195 198 200 203 206 207 204 203 196 189 187 192 192 192 189 187 182 186 184 181 178 176 178 179 177 173 171 174 175 177 182 179 173 181 195 206 204 188 188 184 187 193 195 193 191 183 188 185 181 193 198 181 180 180 182
256 259 261 264 240 201 217 225 197 180 182 182 182 177 179 183 190 178 175 180 175 245 257 209 191 191 192 187 188 189 192 196 199 203 206 205 204 201 195 191 192 193 192 188 186 186 184 184 183 183 179 180 185 185 181 178 174 171 175 178 178 179 172 177 188 197 211 199 190 183 190 195 196 196 193 191 188 196 199 199 192 184 184 184 183
253 251 254 261 263 216 210 209 214 191 182 182 183 178 173 179 183 181 185 186 175 200 244 236 197 197 191 189 189 193 193 197 201 203 203 204 204 199 197 196 193 190 190 187 184 186 188 188 186 182 182 186 186 186 179 178 177 171 170 174 177 177 168 173 178 175 180 181 183 178 181 191 189 192 193 200 194 199 207 213 207 198 194 185 184
253 247 244 251 260 241 203 216 203 200 189 179 179 178 170 185 184 181 183 180 181 188 201 233 218 194 190 191 194 193 195 200 200 202 201 202 203 200 199 198 194 190 190 185 189 190 188 187 186 186 186 186 188 182 176 180 179 176 173 173 173 168 171 175 178 172 167 162 159 151 159 157 162 167 161 158 177 198 208 214 217 213 211 208 196
246 241 236 238 247 251 213 211 223 200 188 187 177 173 180 183 184 191 183 182 187 187 198 203 204 197 194 194 194 194 197 199 201 200 199 200 201 202 202 199 199 194 185 189 195 189 190 188 185 187 192 187 187 177 178 180 181 178 175 167 170 168 170 178 179 173 167 164 157 151 150 158 164 164 151 148 141 131 126 144 140 145 190 213 215
238 237 235 234 241 249 234 203 208 212 191 186 180 177 184 183 183 177 176 188 186 191 189 194 194 194 195 196 197 198 199 200 199 199 199 202 202 205 205 202 197 189 191 195 194 194 191 189 189 189 190 187 184 178 179 180 180 178 174 167 168 170 174 176 178 174 170 169 168 161 160 165 178 161 156 151 142 139 144 134 119 104 108 85 125
231 233 229 226 228 233 231 216 205 201 213 174 180 181 173 176 172 173 183 179 182 186 195 194 193 196 194 196 199 202 204 202 199 198 200 202 204 207 205 199 195 194 195 196 194 196 195 191 189 187 185 184 189 177 181 180 180 177 174 167 165 168 171 176 179 177 174 174 174 171 169 168 169 173 179 162 148 152 142 134 125 119 91 63 61
220 223 222 217 215 217 211 208 203 185 182 178 185 185 170 173 173 167 170 172 179 187 196 196 206 204 199 197 199 204 205 203 202 200 200 203 204 204 203 198 197 200 201 197 197 194 192 193 191 186 182 188 185 177 181 181 179 179 173 169 164 170 174 177 179 181 179 178 175 171 168 169 171 178 190 175 163 152 146 145 148 142 121 70 63
227 213 216 209 204 207 206 192 187 192 186 185 180 171 178 191 184 174 167 174 169 182 194 199 206 209 216 208 200 202 206 205 203 203 203 203 203 203 202 191 197 200 197 198 199 197 195 190 187 188 186 186 180 184 181 181 180 175 171 173 168 172 178 179 184 183 177 175 177 175 170 168 172 186 186 181 168 154 152 159 159 166 168 140 149
230 225 214 208 204 201 211 187 182 193 208 216 194 169 174 181 191 191 174 171 175 191 196 194 202 202 206 215 211 204 205 205 204 206 205 204 202 199 197 187 195 196 200 203 199 196 192 190 188 191 189 181 181 181 183 181 177 176 175 171 173 173 182 183 184 183 172 176 183 178 169 168 177 192 185 184 176 163 164 167 166 164 165 174 208
222 216 211 205 196 186 185 184 168 177 206 198 207 190 167 180 190 192 192 187 183 190 191 198 206 203 204 212 215 213 208 205 206 208 205 201 196 195 194 187 197 198 203 200 193 194 195 193 193 192 182 176 172 180 185 182 179 178 176 172 171 174 176 187 176 182 182 176 187 187 178 176 181 188 182 189 182 178 167 173 175 168 178 187 203
219 217 211 204 194 177 169 167 169 182 189 188 181 183 190 183 188 184 182 185 185 188 194 197 215 217 211 213 216 217 212 208 208 207 202 199 191 190 191 189 194 196 198 194 191 195 193 193 185 181 180 179 170 174 185 184 180 179 176 170 174 172 182 181 178 176 175 193 189 190 191 182 183 182 184 187 188 185 168 174 166 177 179 199 193
209 212 209 196 194 183 177 175 178 175 173 172 163 166 193 206 190 178 192 194 182 173 176 189 203 220 237 231 224 218 215 213 208 202 197 193 191 192 188 187 192 194 193 192 193 197 193 188 182 182 178 180 175 169 183 184 182 180 177 170 180 181 177 172 173 175 178 177 186 193 192 193 186 184 184 187 188 191 175 169 182 188 196 169 147
206 203 197 191 178 183 179 179 176 167 161 152 147 157 173 176 173 206 208 188 166 165 167 173 190 207 228 235 237 232 220 213 206 197 193 195 195 190 187 188 190 190 193 196 195 193 191 185 186 179 183 182 179 174 169 190 183 182 180 177 174 183 171 165 168 175 175 177 180 184 192 193 191 187 184 184 187 188 180 172 195 195 147 138 161
188 199 194 175 171 171 176 177 176 168 163 160 151 166 177 170 178 203 209 208 187 169 163 168 184 203 222 235 243 241 231 217 205 196 191 194 189 188 188 187 187 190 195 198 196 193 186 180 181 184 186 183 178 183 173 176 189 186 183 180 176 170 170 168 168 176 182 180 172 178 190 184 187 187 182 182 182 182 176 189 182 164 162 165 151
160 162 167 164 160 165 168 171 167 166 163 159 158 171 186 191 212 209 190 205 206 179 161 171 187 206 225 239 244 245 238 230 208 196 194 189 186 187 185 186 187 188 194 197 195 190 183 180 184 185 188 188 185 178 186 179 179 191 187 181 175 168 167 176 173 175 172 167 168 179 187 180 181 181 180 176 173 168 176 180 172 172 167 161 151
150 141 128 128 145 159 161 165 166 165 163 163 166 173 185 199 223 207 208 200 212 205 176 186 198 207 217 232 242 240 230 222 223 207 193 187 185 180 185 191 188 192 194 196 193 188 187 187 186 185 186 186 180 187 178 190 183 181 185 182 175 169 173 162 164 166 164 170 176 177 176 171 177 178 177 174 179 182 174 168 172 171 163 159 161
79 84 100 105 117 137 150 168 182 170 170 168 174 169 182 201 201 215 226 218 211 229 241 228 221 217 221 226 240 238 230 222 208 195 202 197 184 183 188 188 191 195 195 195 190 186 192 189 191 190 186 182 177 175 179 177 189 183 181 180 172 169 167 169 163 166 172 168 169 170 169 168 163 161 157 169 184 194 195 176 162 159 165 169 169
179 177 140 122 116 124 166 185 197 197 181 186 184 191 192 190 198 202 205 217 232 236 244 243 232 231 231 227 232 233 228 223 211 210 196 194 195 187 186 186 191 195 195 195 189 189 196 193 193 191 182 176 180 182 178 174 175 177 174 156 148 150 149 142 138 159 163 159 155 157 162 164 157 164 165 170 170 157 151 157 168 174 172 176 176
215 143 147 162 171 185 187 184 198 198 184 186 193 196 198 198 202 200 206 211 221 225 232 242 241 234 238 232 233 223 221 220 216 206 195 197 203 193 187 190 193 193 191 193 189 195 198 194 197 185 178 178 185 188 185 179 180 177 167 156 152 150 159 161 151 158 149 137 130 110 117 118 119 119 122 122 151 176 181 169 180 182 183 184 187
231 227 199 205 204 208 209 204 217 211 197 193 194 194 197 199 199 201 204 214 225 231 232 239 241 243 243 233 228 222 215 219 206 207 208 192 190 192 198 204 201 192 189 189 192 196 198 198 188 177 174 187 187 197 203 186 174 169 165 165 167 169 157 161 162 143 120 106 113 129 139 144 152 159 165 176 179 177 203 197 185 186 182 177 179
19 160 196 212 217 211 207 202 205 175 157 170 178 199 211 204 198 200 201 211 220 227 232 237 240 240 239 230 228 224 212 206 202 207 208 215 322 297 214 198 195 202 199 195 188 191 191 184 184 189 183 181 197 196 136 148 163 173 178 178 176 167 166 155 154 151 143 143 159 164 174 171 169 169 178 184 187 191 192 203 212 200 187 184 190
27 41 31 44 173 179 175 168 169 167 159 160 159 165 175 201 210 205 198 207 211 221 226 235 234 234 226 223 219 217 210 208 208 202 198 194 179 104 44 34 345 175 186 193 202 203 181 183 181 186 197 204 175 151 162 169 172 178 181 180 170 166 157 150 146 140 148 157 164 175 182 183 178 178 183 188 188 187 197 198 204 198 199 197 194